Find Starlink 4523

NORAD ID: 53389 Int'l Des: 2022-097 Owner: SPXS Country: US Constellation: starlink operational
LEOCIRCULAR

リアルタイム位置

3D地球を読み込み中...

Starlink 4523について

説明を読み込み中...

次回通過

Passes for default location (London). Set your location on the main map for personalized predictions.

高度履歴

Loading altitude history...

軌道要素

1 53389U 22097B 26120.78076219 -.00000215 00000-0 45758-5 0 9992
2 53389 53.2173 250.2728 0001282 89.3580 270.7559 15.08838108206536
Epoch: Apr 30, 2026 • Age: 17 hours

現在のステータス

高度 539.9 km
速度 7.60 km/s
衛星直下点 20.65°N, 21.77°E
打ち上げ日 Aug 10, 2022
運用期間 3.7 years
タイプ internet

技術仕様

分類 Payload
質量 297.00 kg
乾燥質量 275.00 kg
総質量 297.00 kg
長さ 0.20 m
直径 2.80 m
スパン 9.00 m
形状 Box + pan
製造者 SPXS
バスタイプ Starlink
フェーズステータス In Orbit
所有者/国 SPXS/US

Most Searched